Powrót do katalogu

STARLINK-2486

AktywnyŁącznośćVLEO
NORAD 48143·PAYLOAD·🇺🇸 United States

Wystrzelony Apr 7, 2021 z Cape Canaveral Space Force Station

Loading…

Następne Przeloty (najbliższe 24 godziny)

TLE

ŚwieżeSource: CelesTrak SupGP

Epoka: Sep 14, 2026, 21:28 UTC

1 48143C 21027BD  26257.89493056  .00060530  00000+0  11314-2 0  2570
2 48143  53.1519 290.3500 0004870  29.6815 346.0664 15.48100817    10

Śledź STARLINK-2486 w czasie rzeczywistym z AllMySat

Download on the App Store